Location: *
(46.1866°S, 178.5290°W)
Time: 11:37:28
(UTC+00:00)

Cosmos 1633 - Pass Details

Date: 19 May 2021
Orbit: 460 x 478 km, 82.5° (Epoch: 13 June)

Event Time Altitude Azimuth Distance (km) Brightness Sun altitude
Rises 06:16:42 0° 338° (NNW) 2,504 6.6 -18.6°
Reaches altitude 10° 06:18:49 10° 331° (NNW) 1,639 5.7 -18.9°
Maximum altitude 06:22:16 45° 257° (WSW) 668 3.6 -19.5°
Drops below altitude 10° 06:25:48 10° 183° (S) 1,676 5.2 -20.1°
Enters shadow 06:26:29 - 180° (S) 1,947 5.5 -20.3°
